Flight Track Log - Related Links

Times and Time Zones

All times are in EDT time to prevent confusion due to time zone crossing. See the SWA2403 flight status page for this flight to view local times or setup timezone preferences in your user account.

Time Position Orientation Groundspeed Altitude Reporting Facility
EDT Latitude Longitude Course Direction KTS MPH feet Rate Location/Type
Fri 12:10:01 AM 38.8481 -121.6367 339° North 238 274 6,700  Level Oakland Center
Fri 12:11:02 AM 38.9208 -121.6703 340° North 276 318 10,100 2,852 Climbing Oakland Center
Fri 12:12:03 AM 39.0044 -121.7108 339° North 324 373 12,500 3,000 Climbing Oakland Center
Fri 12:13:00 AM 39.1480 -121.7954 341° North  Level FlightAware Approximate
Fri 12:13:04 AM 39.0956 -121.7533 340° North 344 396 16,200  Level Oakland Center
Fri 12:14:00 AM 39.2415 -121.8368 342° North  Level FlightAware Approximate
Fri 12:14:05 AM 39.1894 -121.7986 340° North 358 412 18,900  Level Oakland Center
Fri 12:15:06 AM 39.2875 -121.8450 340° North 373 429 21,600 2,607 Climbing Oakland Center
Fri 12:16:07 AM 39.3883 -121.8936 340° North 386 444 24,200 2,459 Climbing Oakland Center
Fri 12:17:08 AM 39.4969 -121.9453 340° North 392 451 26,600 2,115 Climbing Oakland Center
Fri 12:18:09 AM 39.6058 -121.9814 346° North 401 461 28,500 2,016 Climbing Oakland Center
Fri 12:19:10 AM 39.7192 -121.9958 354° North 408 470 30,700 2,164 Climbing Oakland Center
Fri 12:20:11 AM 39.8289 -122.0128 353° North 399 459 32,900 1,869 Climbing Oakland Center
Fri 12:21:12 AM 39.9361 -122.0303 353° North 392 451 34,500 1,967 Climbing Oakland Center
Fri 12:22:13 AM 40.0639 -122.0508 353° North 388 447 36,900 1,721 Climbing Oakland Center
Fri 12:23:14 AM 40.1644 -122.0667 353° North 372 428 38,000 541 Climbing Oakland Center
Fri 12:24:15 AM 40.2658 -122.0817 354° North 373 429 38,000  Level Oakland Center
Fri 12:25:16 AM 40.3667 -122.1003 352° North 371 427 38,000  Level Oakland Center
Fri 12:26:17 AM 40.4686 -122.1169 353° North 371 427 38,000  Level Oakland Center
Fri 12:27:18 AM 40.5706 -122.1342 353° North 373 429 38,000  Level Oakland Center
Fri 12:28:19 AM 40.6714 -122.1503 353° North 369 425 38,000  Level Oakland Center
Fri 12:29:19 AM 40.7731 -122.1661 353° North 369 425 38,000  Level Oakland Center
Fri 12:30:20 AM 40.8944 -122.1850 353° North 367 422 38,000  Level Oakland Center
Fri 12:31:21 AM 40.9950 -122.2022 353° North 367 422 38,000  Level Oakland Center
Fri 12:32:22 AM 41.0961 -122.2200 352° North 366 421 38,000  Level Oakland Center
Fri 12:33:23 AM 41.1981 -122.2403 351° North 371 427 38,000  Level Oakland Center
Fri 12:34:24 AM 41.2981 -122.2556 353° North 364 419 38,000 -218 Level Oakland Center
Fri 12:35:13 AM 41.3814 -122.2400 North 374 430 37,600 -1,321 Descending Seattle Center
Fri 12:36:13 AM 41.4839 -122.2236 North 380 437 35,600 -1,934 Descending Seattle Center
Fri 12:37:14 AM 41.5939 -122.2219 North 392 451 33,700 -1,770 Descending Seattle Center
Fri 12:38:15 AM 41.7044 -122.2328 356° North 395 455 32,000 -843 Descending Seattle Center
Fri 12:39:15 AM 41.8136 -122.2556 351° North 393 452 32,000  Level Seattle Center
Fri 12:40:16 AM 41.9217 -122.2775 351° North 391 450 32,000  Level Seattle Center
Fri 12:41:17 AM 42.0300 -122.3000 351° North 390 449 32,000  Level Seattle Center
Fri 12:42:17 AM 42.1389 -122.3214 352° North 391 450 32,000  Level Seattle Center
Fri 12:43:18 AM 42.2475 -122.3436 351° North 390 449 32,000  Level Seattle Center
Fri 12:44:19 AM 42.3567 -122.3656 352° North 395 455 32,000  Level Seattle Center
Fri 12:45:19 AM 42.4658 -122.3883 351° North 396 456 32,000  Level Seattle Center
Fri 12:46:20 AM 42.5747 -122.4125 351° North 397 457 32,000  Level Seattle Center
Fri 12:47:21 AM 42.6839 -122.4350 351° North 397 457 32,000  Level Seattle Center
Fri 12:48:21 AM 42.7978 -122.4586 351° North 397 457 32,000  Level Seattle Center
Fri 12:49:22 AM 42.9058 -122.4819 351° North 394 453 32,000  Level Seattle Center
Fri 12:50:23 AM 43.0153 -122.5042 352° North 398 458 32,000  Level Seattle Center
Fri 12:51:24 AM 43.1231 -122.5281 351° North 394 453 32,000  Level Seattle Center
Fri 12:52:24 AM 43.2319 -122.5494 352° North 394 453 32,000  Level Seattle Center
Fri 12:53:25 AM 43.3406 -122.5744 350° North 395 455 32,000  Level Seattle Center
Fri 12:54:26 AM 43.4489 -122.5969 351° North 395 455 32,000  Level Seattle Center
Fri 12:55:26 AM 43.5564 -122.6217 351° North 394 453 32,000  Level Seattle Center
Fri 12:56:27 AM 43.6842 -122.6494 351° North 388 447 32,000  Level Seattle Center
Fri 12:57:28 AM 43.7914 -122.6722 351° North 388 447 32,000  Level Seattle Center
Fri 12:58:28 AM 43.8967 -122.6964 351° North 385 443 32,000 -446 Level Seattle Center
Fri 12:59:29 AM 44.0042 -122.7194 351° North 389 448 31,100 -934 Descending Seattle Center
Fri 01:00:30 AM 44.1133 -122.7436 351° North 398 458 30,100 -1,339 Descending Seattle Center
Fri 01:01:30 AM 44.2264 -122.7453 359° North 406 467 28,400 -2,033 Descending Seattle Center
Fri 01:02:31 AM 44.3394 -122.7336 North 411 473 26,000 -2,281 Descending Seattle Center
Fri 01:03:31 AM 44.4378 -122.7236 North 397 457 23,800 -2,281 Descending Seattle Center
Fri 01:04:32 AM 44.5439 -122.7133 North 386 444 21,400 -2,508 Descending Seattle Center
Fri 01:05:33 AM 44.6658 -122.7025 North 371 427 18,700 -2,294 Descending Seattle Center
Fri 01:06:14 AM 44.7347 -122.6978 North 363 418 17,500 -2,000 Descending Seattle Center
Fri 01:06:33 AM 44.7656 -122.6922 North 363 418 16,700 -2,375 Descending Seattle Center
Fri 01:07:02 AM 44.8128 -122.6878 North 365 420 15,600 -2,459 Descending Seattle Center
Fri 01:07:34 AM 44.8664 -122.6817 North 364 419 14,200 -2,459 Descending Seattle Center
Fri 01:08:03 AM 44.9144 -122.6772 North 367 422 13,100 -2,164 Descending Seattle Center
Fri 01:08:35 AM 44.9681 -122.6731 North 367 422 12,000 -1,100 Descending Seattle Center
Fri 01:09:03 AM 45.0183 -122.6658 North 346 398 12,000 -765 Level Seattle Center
Fri 01:11:00 AM 45.2171 -122.6450 North  Level FlightAware Approximate
Fri 01:11:59 AM 45.2778 -122.6406 North 279 321 9,400  Level Seattle Center
Fri 01:12:37 AM 45.3181 -122.6361 North 292 336 8,400 -1,869 Descending Seattle Center
Fri 01:13:00 AM 45.3564 -122.6331 North 278 320 7,500 -1,475 Descending Seattle Center
Fri 01:13:38 AM 45.3956 -122.6286 North 282 325 6,900 -700 Descending Seattle Center
Fri 01:14:00 AM 45.4283 -122.6253 North 255 293 6,800 -600 Descending Seattle Center
Fri 01:14:38 AM 45.4594 -122.6086 21° North 252 290 6,300 -885 Descending Seattle Center
Fri 01:15:01 AM 45.4592 -122.5636 90° East 237 273 5,900 -984 Descending Seattle Center
Fri 01:15:39 AM 45.4442 -122.5186 115° Southeast 246 283 5,300 -885 Descending Seattle Center
Fri 01:16:02 AM 45.4308 -122.4767 114° Southeast 244 281 5,000 -885 Descending Seattle Center
Fri 01:16:40 AM 45.4172 -122.4328 114° Southeast 240 276 4,400 -900 Descending Seattle Center
Fri 01:17:02 AM 45.4036 -122.3861 113° Southeast 234 269 4,100 -500 Descending Seattle Center
Fri 01:17:40 AM 45.4153 -122.3469 67° East 243 280 3,900 -98 Descending Seattle Center
Fri 01:18:03 AM 45.4419 -122.3181 37° Northeast 230 265 4,000 -393 Climbing Seattle Center
Fri 01:18:41 AM 45.4669 -122.3031 23° Northeast 223 257 3,500 -900 Descending Seattle Center
Fri 01:19:03 AM 45.4872 -122.3272 320° Northwest 184 212 3,100 -800 Descending Seattle Center
Fri 01:19:41 AM 45.5006 -122.3544 305° West 185 213 2,700 -590 Descending Seattle Center
Fri 01:20:04 AM 45.5119 -122.3847 298° West 165 190 2,500 -295 Descending Seattle Center
Fri 01:20:42 AM 45.5228 -122.4119 300° West 170 196 2,400 -393 Descending Seattle Center
Fri 01:21:05 AM 45.5342 -122.4403 300° West 159 183 2,100 -900 Descending Seattle Center
Fri 01:21:42 AM 45.5489 -122.4772 300° West 163 188 1,500 -800 Descending Seattle Center
Fri 01:22:05 AM 45.5536 -122.4942 292° West 156 180 1,300 -787 Descending Seattle Center
Fri 01:22:43 AM 45.5683 -122.5269 303° West 155 178 700 -787 Descending Seattle Center
Fri 01:23:06 AM 45.5744 -122.5442 297° West 128 147 500 -295 Descending Seattle Center
Fri 01:23:44 AM 45.5858 -122.5719 300° West 151 174 400 -158 Descending Seattle Center

Login

Don't have an account? Register now (free) for customized features, flight alerts, and more!